Theta_e
314 312 311 310 309 309 309 309 310 312 315 320 325 328 332 333 331 332 331 326 328 329 332 331 328 325 322 323 329 330 325 321 319
308 308 308 308 308 308 308 308 307 307 308 308 309 310 313 321 329 329 331 333 329 329 329 331 332 330 322 320 321 331 333 331 327
308 308 308 308 308 309 309 309 309 308 308 308 307 307 307 308 309 315 321 327 332 329 329 329 331 332 332 329 321 326 329 332 333
308 308 308 308 309 309 309 309 309 309 309 309 309 309 308 307 307 307 309 310 316 328 326 330 331 331 331 332 332 325 324 328 331
308 308 309 309 309 309 308 308 307 307 307 307 308 309 310 310 309 310 312 316 318 316 324 326 329 331 331 331 331 331 332 325 323
309 309 308 308 307 307 306 306 306 307 307 308 307 307 308 310 311 312 314 316 316 325 323 324 329 331 334 333 332 331 331 332 331
308 307 306 306 306 306 307 308 308 309 309 309 309 310 309 307 310 311 312 313 313 316 323 327 328 327 328 328 327 328 329 329 331
306 306 306 307 307 308 308 308 309 309 309 310 310 310 311 311 308 309 312 312 312 312 314 317 320 322 321 320 319 317 316 322 325
306 306 306 307 308 308 308 308 309 310 310 311 311 311 312 312 312 312 311 309 310 312 312 313 313 314 315 314 314 312 312 312 313
306 305 306 307 308 308 308 309 309 309 308 308 308 309 310 311 312 312 312 312 312 311 310 311 313 314 314 313 312 312 313 313 313
305 304 306 308 309 309 308 308 308 308 308 308 309 308 308 309 310 311 311 311 311 311 311 313 316 317 314 314 315 317 318 318 319
304 303 306 308 309 308 308 308 309 309 308 309 308 309 311 311 311 311 311 311 311 311 310 314 315 313 316 316 318 318 318 318 318
305 303 305 308 309 308 308 308 308 308 309 309 309 309 310 310 311 311 312 312 312 311 311 312 313 313 315 318 318 319 317 316 312
306 304 304 307 309 309 309 308 308 308 309 309 310 310 310 310 311 312 312 313 313 312 311 313 312 313 315 316 315 313 313 315 317
307 305 303 306 309 309 309 309 308 309 309 311 312 311 312 311 311 312 312 313 313 312 312 312 312 313 312 312 312 312 314 315 316
307 307 304 304 307 308 308 309 308 309 309 310 312 313 313 312 311 312 312 312 313 313 313 313 312 313 313 312 311 310 309 313 317
307 307 306 303 306 307 306 307 307 307 309 309 310 310 312 311 311 312 312 311 313 313 313 313 313 313 312 311 311 310 309 309 312
307 307 307 305 304 306 306 305 305 307 308 309 308 309 308 308 310 311 310 309 313 313 312 313 313 312 311 311 311 310 309 309 309
307 307 307 305 305 304 305 306 305 306 307 307 307 307 307 307 307 308 308 310 312 313 312 312 312 311 310 310 309 308 308 308 307
306 307 307 306 305 306 305 305 306 305 305 307 307 306 306 307 306 307 308 309 310 311 312 311 311 311 310 309 309 307 306 306 307
Wind_Speed
10 10 11 11 11 12 12 12 12 13 13 14 13 14 13 14 14 12 11 12 13 12 10 11 12 12 11 11 11 9 7 7 7
11 11 12 13 13 14 14 15 15 16 16 17 17 17 17 18 17 16 14 13 13 13 12 15 13 13 12 12 13 12 11 11 9
12 13 14 14 15 15 16 16 17 17 18 19 19 20 20 20 21 20 19 17 16 16 16 18 18 15 13 13 14 14 15 15 13
13 14 14 15 16 17 18 18 18 19 20 20 20 20 20 22 22 20 19 19 21 21 19 18 22 20 17 16 15 15 16 17 17
14 16 17 18 20 21 21 22 22 22 22 21 20 20 19 19 19 18 17 18 16 21 22 20 22 22 21 20 21 19 18 18 16
15 17 18 19 20 22 22 22 23 23 21 21 20 20 20 20 19 18 18 18 15 16 18 21 18 18 19 16 15 15 15 17 18
16 17 17 19 19 20 21 22 22 22 22 21 20 20 19 19 19 19 20 20 17 15 16 18 17 15 17 16 16 18 19 19 15
14 16 17 18 19 19 19 19 20 20 20 19 18 18 17 17 17 18 19 21 20 18 18 20 20 19 19 21 22 22 23 24 22
16 17 18 19 19 19 19 18 18 17 17 17 17 16 15 15 15 14 15 17 19 19 20 22 23 23 24 26 25 25 24 23 23
17 18 19 19 19 19 18 18 18 18 17 16 15 14 13 12 11 10 11 13 15 16 15 17 17 19 22 22 21 20 20 21 19
18 19 19 19 19 19 18 19 19 18 18 15 14 15 12 10 9 9 10 9 9 10 9 9 9 10 13 11 8 9 9 10 10
18 19 19 19 19 18 17 17 17 18 17 14 14 11 8 7 7 6 7 6 6 7 7 2 5 7 5 4 4 7 8 9 11
18 18 19 19 19 19 18 19 19 19 16 14 13 7 4 4 5 5 6 7 7 7 5 2 3 5 4 3 2 4 9 13 14
18 18 19 19 19 19 19 19 19 19 14 12 9 6 5 5 5 5 7 8 8 7 5 4 3 2 2 5 7 10 9 8 9
17 18 18 18 18 17 17 18 16 15 13 7 4 4 4 4 3 5 7 7 7 6 6 4 4 4 5 7 8 9 10 10 7
16 17 17 17 17 19 18 16 15 12 12 5 2 0 2 4 2 3 6 6 6 5 5 6 7 7 9 7 8 10 12 13 14
16 16 16 16 16 16 17 16 14 13 12 13 4 3 4 1 6 4 5 6 3 3 4 7 9 11 10 9 11 12 13 14 15
17 15 15 14 14 15 16 16 15 11 8 8 10 6 6 17 3 5 6 4 1 2 4 4 8 10 12 12 12 14 15 16 15
17 15 13 13 13 13 14 15 16 11 8 8 5 5 7 6 8 3 3 2 3 4 2 4 6 8 10 14 14 16 16 18 15
15 14 13 12 12 12 13 13 13 12 10 8 9 6 7 5 6 11 13 2 5 7 7 5 6 8 11 14 17 21 20 21 18
Wind_Direction
325 323 319 317 314 312 309 305 299 290 283 280 281 284 287 287 289 286 285 277 282 285 272 281 297 298 298 289 285 291 299 305 304
322 321 319 318 315 312 309 306 302 299 295 291 287 282 275 274 274 277 273 275 275 280 287 282 291 298 294 288 285 279 285 289 295
320 319 316 316 314 312 311 310 307 302 296 294 291 287 283 278 275 272 269 264 259 260 275 277 277 283 286 287 283 275 277 278 279
324 322 320 320 318 316 313 309 306 302 300 298 295 292 287 282 280 279 274 268 257 252 254 267 265 269 271 276 276 272 269 270 267
328 326 325 323 321 319 317 315 313 309 305 301 297 292 287 286 285 282 271 274 279 259 252 264 268 269 267 270 271 271 269 266 267
329 326 325 323 322 321 320 317 316 314 311 308 301 295 290 284 279 277 273 270 276 272 265 264 272 267 263 260 271 273 278 274 269
332 329 329 326 324 321 320 319 317 316 312 309 304 300 293 285 280 272 270 272 270 271 269 265 273 268 276 282 279 280 282 281 282
336 335 333 330 328 327 325 322 322 322 321 319 314 308 300 295 287 281 276 275 273 266 269 273 275 278 277 278 280 284 283 276 272
342 341 339 337 335 334 332 333 335 333 331 328 326 323 311 303 299 296 292 286 283 276 268 268 275 282 283 284 287 287 281 275 271
346 345 344 341 339 338 338 338 338 335 334 335 331 329 325 319 311 306 302 296 291 292 283 277 277 278 280 286 290 288 282 281 278
348 347 346 345 342 340 341 341 339 336 337 337 332 329 326 330 327 323 325 321 310 302 298 290 290 280 295 305 340 344 325 309 302
349 348 347 347 345 343 340 339 337 333 335 336 331 338 351 356 359 3 357 354 338 326 314 320 306 321 342 27 330 322 321 300 298
350 348 347 349 348 343 341 339 339 341 347 346 340 335 359 42 27 23 17 10 12 11 5 338 348 360 28 23 327 312 309 311 320
350 350 349 349 349 344 340 337 338 343 356 3 20 47 64 67 48 37 24 20 18 25 42 52 40 53 350 316 313 304 328 350 356
348 349 349 349 350 347 342 340 341 349 359 20 38 65 71 32 15 19 17 18 16 33 43 42 20 354 329 334 344 351 12 6 334
343 344 346 347 351 354 349 338 346 360 9 32 53 285 315 346 321 353 7 360 11 25 34 23 11 8 2 0 352 349 349 359 358
333 337 340 344 349 352 352 350 351 3 9 11 12 322 278 281 277 301 321 336 331 341 20 32 25 11 1 349 340 337 337 338 352
323 327 329 335 342 349 354 350 346 352 1 5 23 348 339 334 266 273 308 323 278 304 355 351 5 2 354 342 342 338 335 336 346
314 314 316 321 334 341 348 350 352 339 344 355 359 346 320 336 322 323 306 304 250 257 270 302 315 333 345 343 341 338 332 337 343
313 309 311 311 319 327 335 340 344 353 341 329 315 335 321 303 297 308 321 289 263 274 268 274 273 307 324 324 330 336 347 343 347